Regional Weather Roundup
Issued by NWS

Home | Current Version | Previous Version | Graphics & Text | Print | Product List | Glossary On
Versions: 1 2 3 4 5 6 7 8 9 10 11 12 13 14 15 16 17 18 19 20 21 22 23 24 25 26 27 28 29 30 31 32 33 34 35 36 37 38 39 40 41 42 43 44 45 46 47 48 49 50
000
ASUS43 KLSX 202257
RWRMO

WEATHER SUMMARY FOR MISSOURI
NATIONAL WEATHER SERVICE SPRINGFIELD MO
600 PM CDT FRI OCT 20 2017

NOTE: "FAIR" INDICATES FEW OR NO CLOUDS BELOW 12,000 FEET WITH NO
       SIGNIFICANT WEATHER AND/OR OBSTRUCTIONS TO VISIBILITY.
       CURRENT SKY AND/OR WEATHER CONDITIONS ARE NOT AVAILABLE FOR
       CHILLICOTHE AND FARMINGTON.

MOZ001>031-035>038-043-044-053-054-210000-
...NORTHERN AND WESTERN MISSOURI...

CITY           SKY/WX    TMP DP  RH WIND       PRES   REMARKS
KANSAS CTY INT PTCLDY    71  58  63 S21G26    29.86F
LEE`S SUMMIT   CLEAR     72  57  59 S17G28    29.90F
ST JOSEPH      LGT RAIN  73  59  61 S16G31    29.83F
CHILLICOTHE      N/A     70  56  61 S9        29.92F

$$
MOZ066>068-077>081-088>096-101>105-210000-
...SOUTHWEST MISSOURI...

CITY           SKY/WX    TMP DP  RH WIND       PRES   REMARKS
SPRINGFIELD    CLEAR     71  55  56 S17G23    29.99F
JOPLIN         CLEAR     72  58  61 SE14G22   29.94F
BRANSON        MOCLDY    66  57  72 S14       30.05F

$$
MOZ032>034-039>042-045>050-055>058-069>072-210000-
...CENTRAL MISSOURI...

CITY           SKY/WX    TMP DP  RH WIND       PRES   REMARKS
COLUMBIA       NOT AVBL
JEFFERSON CITY CLOUDY    70  52  52 SE6       30.00F
ROLLA          CLOUDY    68  51  54 SE9       30.04R
SEDALIA        CLOUDY    70  56  61 SE14      29.97F
WARRENSBURG    MOCLDY    70  54  56 SE14      29.92F

$$
MOZ051-052-059>065-210000-
...EAST CENTRAL MISSOURI...

CITY           SKY/WX    TMP DP  RH WIND       PRES   REMARKS
ST LOUIS INTL  CLOUDY    73  51  46 SE15      30.05F

$$
MOZ072>076-082>087-097>100-106>115-210000-
...SOUTH CENTRAL AND SOUTHEAST MISSOURI...

CITY           SKY/WX    TMP DP  RH WIND       PRES   REMARKS
CAPE GIRARDEAU NOT AVBL
POPLAR BLUFF   CLOUDY    71  51  49 S6        30.10F
WEST PLAINS    CLOUDY    69  55  60 SE10      30.07F

$$



USA.gov is the U.S. government's official web portal to all federal, state and local government web resources and services.